FW1501 Weather Reports


time (UTC)temp
C
wind
direction
speed
KPH
gust
KPH
rain 1hr
cm
rain 24hr
cm
rain mn
cm
humidity
%
barometer
mb
20260506083100 -17 178 0.0 0.0 0.00 0.00 0.00 1014.1
20260506081555 -17 112 0.0 0.0 0.00 0.00 0.00 1014.2
20260506073042 -17 194 0.0 0.0 0.00 0.00 0.00 1013.6
20260506071537 -17 193 0.0 0.0 0.00 0.00 0.00 1013.7
20260506061521 -17 190 0.0 0.0 0.00 0.00 0.00 1013.4
20260506050103 -17 229 0.0 0.0 0.00 0.00 0.00 1013.3
20260506044608 -17 235 0.0 0.0 0.00 0.00 0.00 1013.4
20260506043054 -17 226 0.0 0.0 0.00 0.00 0.00 1013.1
20260506041603 -17 225 0.0 0.0 0.00 0.00 0.00 1013.1
20260506040047 -17 209 0.0 0.0 0.00 0.00 0.00 1012.8
20260506034539 -17 208 0.0 0.0 0.00 0.00 0.00 1012.7
20260506033034 -17 192 0.0 0.0 0.00 0.00 0.00 1012.6
20260506031529 -17 191 0.0 0.0 0.00 0.00 0.00 1012.7
20260506030026 -17 225 0.0 0.0 0.00 0.00 0.00 1012.8
20260506024520 -17 225 0.0 0.0 0.00 0.00 0.00 1012.9
20260506023015 -17 223 0.0 0.0 0.00 0.00 0.00 1013.1
20260506021511 -17 331 0.0 0.0 0.00 0.00 0.00 1013.1
20260506020006 -17 205 0.0 0.0 0.00 0.00 0.00 1013.1
20260506014507 -17 157 0.0 0.0 0.00 0.00 0.00 1012.9
20260506013100 -17 223 0.0 0.0 0.00 0.00 0.00 1012.8
20260506011600 -17 54 0.0 0.0 0.00 0.00 0.00 1012.9
20260506010052 -17 227 0.0 0.0 0.00 0.00 0.00 1012.7
20260506004547 -17 280 0.0 0.0 0.00 0.00 0.00 1012.5
20260506003046 -17 273 0.0 0.0 0.00 0.00 0.00 1012.3
20260506001546 -17 273 0.0 0.0 0.00 0.03 0.00 1012.0
20260506000051 -17 273 0.0 0.0 0.00 0.03 0.00 1011.9
20260505234539 -17 251 0.0 0.0 0.00 0.03 0.00 1011.6
20260505233032 -17 304 0.0 0.0 0.00 0.03 0.00 1011.4
20260505231531 -17 167 0.0 0.0 0.00 0.05 0.00 1011.2
20260505230041 -17 164 0.0 0.0 0.00 0.05 0.00 1011.1
20260505224537 -17 164 0.0 0.0 0.00 0.05 0.00 1010.9
20260505223036 -17 134 0.0 0.0 0.00 0.05 0.00 1010.8
20260505221529 -17 238 0.0 0.0 0.00 0.05 0.00 1010.8
20260505220029 -17 81 0.0 0.0 0.00 0.05 0.00 1010.7
20260505214528 -17 96 0.0 0.0 0.00 0.05 0.00 1010.5
20260505213029 -17 226 0.0 0.0 0.00 0.05 0.00 1010.8
20260505211531 -17 226 0.0 0.0 0.00 0.13 0.00 1010.9
20260505210021 -17 226 0.0 0.0 0.00 0.13 0.00 1011.0
20260505204517 -17 226 0.0 0.0 0.00 0.13 0.00 1011.2
20260505203112 -17 212 0.0 0.0 0.00 0.13 0.00 1011.4
20260505201507 -17 212 0.0 0.0 0.00 0.15 0.00 1011.3
20260505200004 -17 204 0.0 0.0 0.00 0.15 0.00 1011.2
20260505194501 -17 221 0.0 0.0 0.00 0.15 0.00 1011.2
20260505193103 -17 248 0.0 0.0 0.00 0.15 0.00 1011.3
20260505191603 -17 202 0.0 0.0 0.00 0.15 0.00 1011.1
20260505190058 -17 219 0.0 0.0 0.00 0.15 0.00 1011.0
20260505184546 -17 220 0.0 0.0 0.00 0.15 0.00 1011.2
20260505183041 -17 210 0.0 0.0 0.00 0.15 0.00 1011.3
20260505181549 -17 173 0.0 0.0 0.00 0.15 0.00 1011.4
20260505180032 -17 265 0.0 0.0 0.00 0.15 0.00 1011.5
20260505174536 -17 291 0.0 0.0 0.00 0.15 0.00 1011.4
20260505173023 -17 248 0.0 0.0 0.00 0.15 0.00 1011.5
20260505171530 -17 244 0.0 0.0 0.00 0.23 0.00 1011.5
20260505170016 -17 202 0.0 0.0 0.00 0.23 0.00 1011.3
20260505164510 -17 195 0.0 0.0 0.00 0.23 0.00 1011.7
20260505163009 -17 249 0.0 0.0 0.00 0.23 0.00 1011.5
20260505161502 -17 218 0.0 0.0 0.00 0.23 0.00 1011.2
20260505153048 -17 236 0.0 0.0 0.00 0.23 0.00 1010.9
20260505151543 -17 209 0.0 0.0 0.00 0.23 0.00 1010.6
20260505124600 -17 198 0.0 0.0 0.00 0.23 0.00 1008.5
20260505123100 -17 190 0.0 0.0 0.00 0.23 0.00 1008.4
20260505121551 -17 227 0.0 0.0 0.00 0.23 0.00 1008.2
20260505120104 -17 193 0.0 0.0 0.00 0.23 0.00 1008.0
20260505114542 -17 200 0.0 0.0 0.00 0.23 0.00 1007.8
20260505113038 -17 232 0.0 0.0 0.00 0.23 0.00 1007.6
20260505111536 -17 253 0.0 0.0 0.00 0.23 0.00 1007.4
20260505101515 -17 211 0.0 0.0 0.00 0.23 0.00 1006.4
20260505100013 -17 232 0.0 0.0 0.00 0.23 0.00 1006.1
20260505094507 -17 153 0.0 0.0 0.00 0.23 0.00 1005.9
20260505093002 -17 247 0.0 0.0 0.00 0.23 0.00 1005.5
20260505091559 -17 213 0.0 0.0 0.00 0.23 0.00 1005.3
20260505090056 -17 207 0.0 0.0 0.00 0.23 0.00 1005.1
20260505084600 -17 195 0.0 0.0 0.00 0.23 0.00 1004.8